Shelton, WA

2:00 AM PDT on May 28, 2017 (GMT -0700)
Sanderson

Weather History for KSHN - December, 2012

Change the Weather History Date:

Wednesday, December 5, 2012

  Actual Average Record
Temperature  
Mean Temperature 39 °F -  
Max Temperature 46 °F 45 °F 54 °F (1965)
Min Temperature 32 °F 34 °F 14 °F (2013)
Degree Days  
Heating Degree Days 26    
Moisture  
Dew Point 38 °F    
Average Humidity 94    
Maximum Humidity 100    
Minimum Humidity 71    
Precipitation  
Precipitation 0.11 in - - ()
Sea Level Pressure  
Sea Level Pressure 30.13 in    
Wind  
Wind Speed 6 mph (WSW)    
Max Wind Speed 15 mph    
Max Gust Speed 29 mph    
Visibility 10 miles    
Events Rain    
Averages and records for this station are not official NWS values.
T = Trace of Precipitation, MM = Missing Value Source: NWS Daily Summary

Daily Weather History Graph

Daily Weather History Graph

Search for Another Location

Airport or City:

Trip Planner

Search our weather history database for the weather conditions in past years. The results will help you decide how hot, cold, wet, or windy it might be!

Date:

Astronomy

Dec. 05, 2012 Rise Set
Actual Time 7:43 AM PST 4:23 PM PST
Civil Twilight 7:08 AM PST 4:58 PM PST
Nautical Twilight 6:30 AM PST 5:36 PM PST
Astronomical Twilight 5:52 AM PST 6:13 PM PST
Moon 11:39 PM PST (12/5) 11:51 AM PST (12/5)
Length of Visible Light 9h 49m
Length of Day
8h 39m
Waning Gibbous, 58% of the Moon is Illuminated
Dec 5
Waning Gibbous
Dec 6
Last Quarter
Dec 13
New
Dec 19
First Quarter
Dec 28
Full

Hourly Weather History & Observations

Time (PST) Temp. Windchill Dew Point Humidity Pressure Visibility Wind Dir Wind Speed Gust Speed Precip Events Conditions
12:53 AM 41.0 °F 34.3 °F 37.9 °F 89% 29.88 in 10.0 mi SSW 11.5 mph 19.6 mph 0.00 in   Mostly Cloudy
1:53 AM 39.9 °F 34.5 °F 37.0 °F 89% 29.93 in 10.0 mi SW 8.1 mph - N/A   Overcast
2:53 AM 39.9 °F 35.8 °F 36.0 °F 86% 29.98 in 10.0 mi SW 5.8 mph - N/A   Mostly Cloudy
3:23 AM 39.2 °F 30.8 °F 37.4 °F 93% 30.00 in 10.0 mi WSW 15.0 mph 28.8 mph 0.02 in Rain Rain
3:50 AM 37.4 °F 33.8 °F 37.4 °F 100% 30.00 in 10.0 mi SW 4.6 mph - 0.03 in   Overcast
3:53 AM 37.9 °F 33.5 °F 37.0 °F 97% 30.02 in 10.0 mi WSW 5.8 mph - 0.03 in   Overcast
4:53 AM 37.0 °F - 36.0 °F 96% 30.04 in 10.0 mi Calm Calm - 0.00 in   Scattered Clouds
6:53 AM 35.1 °F 32.2 °F 35.1 °F 100% 30.10 in 10.0 mi SSW 3.5 mph - 0.00 in   Clear
7:53 AM 32.0 °F - 32.0 °F 100% 30.13 in 10.0 mi Calm Calm - N/A   Scattered Clouds
8:53 AM 36.0 °F - 36.0 °F 100% 30.14 in 10.0 mi Calm Calm - N/A   Clear
9:53 AM 41.0 °F 37.1 °F 39.0 °F 93% 30.17 in 10.0 mi West 5.8 mph - 0.00 in Rain Light Rain
10:53 AM 43.0 °F 40.3 °F 39.0 °F 86% 30.19 in 10.0 mi SW 4.6 mph - 0.00 in   Partly Cloudy
11:53 AM 46.9 °F - 39.0 °F 74% 30.18 in 10.0 mi SSW 8.1 mph - 0.00 in   Scattered Clouds
12:53 PM 46.9 °F - 37.9 °F 71% 30.17 in 10.0 mi SSW 9.2 mph - N/A   Partly Cloudy
1:53 PM 46.0 °F 39.6 °F 39.0 °F 76% 30.17 in 10.0 mi WNW 15.0 mph - N/A   Overcast
2:12 PM 41.0 °F 37.1 °F 37.4 °F 87% 30.15 in 10.0 mi WNW 5.8 mph - 0.02 in Rain Rain
2:36 PM 41.0 °F 39.0 °F 39.2 °F 93% 30.16 in 10.0 mi West 3.5 mph - 0.02 in Rain Light Rain
2:53 PM 42.1 °F 38.4 °F 39.0 °F 89% 30.18 in 10.0 mi WSW 5.8 mph - 0.03 in Rain Light Rain
3:53 PM 41.0 °F 39.0 °F 39.0 °F 93% 30.19 in 10.0 mi WSW 3.5 mph - 0.01 in   Mostly Cloudy
4:53 PM 37.9 °F - 37.9 °F 100% 30.19 in 9.0 mi Calm Calm - N/A   Partly Cloudy
5:53 PM 37.9 °F - 37.9 °F 100% 30.19 in 9.0 mi Calm Calm - N/A   Overcast
6:33 PM 39.2 °F - 39.2 °F 100% 30.18 in 10.0 mi Calm Calm - 0.00 in   Overcast
6:53 PM 39.0 °F - 39.0 °F 100% 30.19 in 10.0 mi Calm Calm - 0.01 in Rain Light Rain
7:27 PM 37.4 °F 34.9 °F 37.4 °F 100% 30.19 in 10.0 mi West 3.5 mph - 0.00 in Rain Light Rain
7:40 PM 39.2 °F - 39.2 °F 100% 30.18 in 10.0 mi Calm Calm - 0.02 in Rain Light Rain
7:53 PM 39.9 °F - 39.0 °F 97% 30.20 in 10.0 mi Calm Calm - 0.02 in Rain Light Rain
8:40 PM 39.2 °F - 39.2 °F 100% 30.18 in 10.0 mi Calm Calm - 0.00 in   Overcast
8:53 PM 39.0 °F - 39.0 °F 100% 30.19 in 10.0 mi Calm Calm - 0.00 in Rain Light Rain
9:21 PM 39.2 °F 37.0 °F 39.2 °F 100% 30.18 in 10.0 mi WSW 3.5 mph - 0.01 in   Overcast
9:43 PM 39.2 °F 37.0 °F 39.2 °F 100% 30.17 in 10.0 mi SW 3.5 mph - 0.01 in Rain Light Rain
9:53 PM 39.9 °F 37.8 °F 39.0 °F 97% 30.19 in 10.0 mi SW 3.5 mph - 0.01 in   Overcast
10:53 PM 39.9 °F - 39.0 °F 97% 30.18 in 10.0 mi Calm Calm - 0.00 in   Overcast
11:53 PM 39.9 °F - 39.0 °F 97% 30.18 in 10.0 mi Calm Calm - N/A   Overcast